Wind_Speed
68 58 48 42 41 38 37 39 44 49 53 56 60 63 69 70 68 67 64 63 64 68 72 81 85 83 78 76 77 81 78 75 74 73 69 64 60 58 55 51 45 43 48 48 53 55 58
73 60 51 45 42 39 38 37 40 44 51 55 58 60 65 67 67 66 63 62 61 62 68 74 84 82 78 77 74 76 76 79 80 77 74 69 67 63 59 56 51 51 49 48 47 53 55
78 67 58 50 46 41 36 37 36 40 45 51 54 58 62 63 63 63 63 61 59 61 63 70 81 83 81 77 77 78 76 74 73 72 73 71 71 68 62 59 57 54 55 54 57 56 47
83 75 62 56 51 43 37 35 37 38 40 46 47 49 54 59 58 60 61 59 58 60 59 65 74 78 80 77 78 79 79 78 76 75 73 72 72 70 67 65 63 60 59 62 62 58 56
89 80 69 61 53 44 39 38 37 38 40 44 46 45 47 51 52 56 58 57 57 56 54 59 67 74 74 75 76 78 79 79 79 79 76 74 73 71 69 70 68 67 62 62 63 64 63
93 88 77 68 60 51 44 39 41 41 42 43 47 47 45 46 48 52 54 56 55 53 51 55 60 65 69 72 76 77 78 77 78 77 75 73 72 71 71 74 73 68 66 66 65 68 69
95 90 84 74 65 58 56 56 56 52 53 52 49 50 48 45 45 49 49 53 53 53 56 56 57 61 71 75 76 77 78 78 77 77 75 74 72 74 77 75 75 74 73 71 71 73 73
97 91 84 77 66 59 58 63 64 61 61 63 59 55 54 49 47 47 46 52 56 54 56 53 54 59 70 80 83 82 79 78 78 77 74 75 76 77 78 77 77 78 76 78 79 80 80
101 94 87 78 70 68 70 64 60 57 51 53 61 59 59 56 49 42 44 54 54 52 49 47 48 50 59 66 74 80 79 78 76 74 74 74 74 77 75 77 81 83 84 85 85 87 84
103 97 90 82 74 73 70 63 55 50 45 43 47 51 60 60 52 45 43 51 54 49 44 42 37 43 51 59 65 71 73 73 70 70 69 70 75 76 77 79 85 86 89 94 94 91 87
104 99 92 85 77 75 68 60 50 46 40 36 37 43 53 63 58 47 44 52 56 49 41 38 29 39 50 55 63 65 65 66 65 67 69 71 74 76 80 88 93 94 93 94 94 92 88
108 102 95 86 79 75 66 59 51 43 37 35 33 36 42 61 60 51 47 52 56 47 35 31 27 34 42 50 61 61 61 61 65 67 70 72 72 78 84 88 88 90 88 84 81 77 65
110 103 96 88 82 78 67 61 51 38 32 29 30 31 34 49 63 57 54 55 46 43 35 30 29 31 37 46 56 59 59 60 62 63 64 65 69 70 74 76 80 82 86 82 81 83 74
111 105 97 90 87 80 69 63 49 34 27 26 25 28 32 44 65 64 58 53 40 45 40 34 33 31 31 37 44 45 49 55 52 51 49 50 54 66 73 80 83 89 85 80 83 83 76
112 107 98 95 89 80 70 62 47 33 22 18 19 24 33 41 60 65 58 50 37 47 46 40 35 31 30 29 30 32 35 36 37 39 42 50 59 69 76 80 80 76 68 69 73 69 67
113 108 99 95 87 79 71 59 45 32 21 13 16 22 30 36 50 63 60 46 39 40 51 46 42 37 33 31 31 33 34 35 34 38 43 52 61 69 64 52 48 43 42 55 57 54 60
113 106 97 95 88 77 70 56 43 33 22 10 12 18 25 34 45 61 57 47 42 43 45 49 47 42 37 36 35 35 34 30 32 37 44 54 57 53 56 59 57 49 39 36 39 39 48
113 106 97 94 86 77 68 53 42 33 19 4 7 19 26 33 40 50 57 53 49 44 41 45 47 44 40 38 36 33 25 27 32 37 36 37 33 33 36 36 35 34 28 24 25 27 32
113 107 97 92 83 75 65 50 37 26 15 2 15 19 24 27 29 50 59 57 53 46 37 38 39 37 36 36 33 26 24 28 30 24 20 22 22 29 30 23 10 11 11 8 6 7 15
113 107 98 91 82 73 62 47 34 21 15 2 12 15 18 24 34 56 65 59 53 47 41 36 35 37 38 34 28 22 25 22 21 22 23 19 21 27 20 36 39 37 32 22 20 6 5
110 107 98 91 84 74 63 47 34 21 13 2 15 21 24 24 36 50 63 64 57 50 46 41 38 38 36 33 25 24 23 21 21 24 22 21 19 22 27 37 44 44 43 39 36 32 17
107 105 97 92 85 74 62 46 33 22 9 6 10 18 21 25 28 38 54 60 58 54 49 44 41 39 38 31 28 22 24 23 24 23 20 14 11 20 22 38 41 43 48 46 39 30 19
103 102 97 90 83 76 62 50 35 24 10 4 5 17 24 26 29 36 48 62 61 57 53 46 44 43 36 33 30 23 24 27 24 23 16 15 4 11 20 23 28 34 37 40 39 36 30
98 97 96 91 83 78 63 51 35 24 13 6 1 10 21 32 36 38 50 62 63 59 55 50 47 44 38 35 30 26 28 29 23 25 18 10 13 9 11 15 20 23 28 32 38 39 39
94 92 92 89 83 76 64 52 36 25 16 5 3 9 18 25 34 41 52 60 65 62 58 53 49 44 41 37 30 29 32 29 31 26 17 9 4 11 8 16 27 34 20 23 26 28 29
89 88 87 86 79 73 63 52 36 23 15 6 3 7 13 22 29 37 44 57 64 63 59 57 52 47 44 39 33 32 32 28 30 24 15 9 2 7 4 9 16 23 24 25 25 19 18
85 84 83 82 76 69 62 50 36 25 16 9 7 10 12 17 24 31 39 47 57 62 60 56 52 50 46 39 34 33 31 30 30 25 19 16 10 5 2 7 6 11 16 19 20 23 26
81 78 78 78 74 65 58 50 37 25 17 11 8 10 13 17 23 30 37 42 47 53 56 55 54 50 45 39 38 30 28 29 31 30 18 23 19 14 12 6 5 4 8 13 14 18 19
78 74 75 74 70 63 57 47 35 25 17 13 11 11 11 15 22 27 35 40 43 48 53 55 51 46 42 39 38 28 30 34 30 32 29 28 23 21 17 14 15 14 14 13 13 15 16
Wind_Direction
347 342 334 325 319 310 297 286 276 268 264 259 255 253 251 250 248 247 248 245 241 237 235 235 233 234 233 234 235 239 240 243 245 248 250 253 252 251 254 257 262 262 259 259 258 257 257
349 344 338 330 325 315 304 292 285 274 267 262 258 254 252 252 249 249 246 243 241 237 235 233 231 231 232 232 234 238 238 240 243 246 249 250 254 254 254 258 262 261 257 256 261 260 260
352 347 341 334 329 319 308 294 286 278 271 267 261 256 254 251 248 247 242 242 238 238 235 230 229 230 231 231 233 236 238 239 241 243 245 247 249 253 254 256 261 262 259 261 261 262 262
352 349 344 339 333 322 309 297 287 279 271 268 265 257 254 252 249 245 242 238 237 235 233 229 229 227 230 230 233 236 238 239 239 241 244 247 249 248 253 256 260 259 258 261 263 267 263
352 350 347 341 334 323 310 301 292 284 276 268 266 260 254 249 245 242 239 236 234 231 229 227 227 226 228 230 232 235 238 239 240 241 243 246 247 250 252 257 257 258 259 262 265 267 269
352 352 349 342 336 327 317 303 293 284 274 266 263 260 257 249 241 240 236 233 230 227 225 224 225 227 229 231 232 234 236 238 240 242 243 244 247 248 250 252 256 258 260 258 261 262 263
352 353 349 344 337 330 322 313 302 287 275 264 253 254 252 247 244 236 233 230 227 225 223 226 229 235 236 234 233 234 235 238 239 240 241 243 246 248 249 253 255 258 261 261 262 260 260
349 352 349 344 337 329 320 310 302 290 281 272 260 245 246 245 243 233 227 226 225 225 226 227 237 240 234 232 233 233 234 236 238 239 242 244 245 247 252 254 257 259 259 260 261 262 263
349 351 349 344 338 334 325 317 307 297 287 272 264 251 239 239 240 235 221 221 221 223 224 229 241 236 230 227 228 231 234 235 238 239 242 244 249 252 256 258 259 260 258 258 259 261 261
349 351 349 344 342 337 329 324 314 303 293 279 265 256 238 234 231 230 218 221 219 220 222 228 233 231 227 224 224 228 230 231 234 238 242 246 249 252 256 259 260 260 261 261 261 261 259
349 351 349 346 342 338 333 327 320 307 294 279 262 250 238 228 227 223 215 215 217 217 215 225 226 228 223 224 222 228 230 231 234 239 244 248 252 256 260 264 263 263 264 265 265 262 261
348 350 350 346 344 340 339 331 325 312 296 278 259 247 236 222 221 217 215 211 216 213 205 221 225 223 225 223 225 229 232 237 239 243 249 256 259 262 263 264 265 265 267 267 266 266 265
347 351 350 348 347 344 341 335 331 317 294 273 256 244 231 224 216 213 212 216 213 208 200 212 219 218 222 225 227 230 237 242 248 253 259 263 266 267 267 268 270 271 272 273 272 270 265
347 351 351 350 349 345 343 340 334 323 300 277 250 233 222 215 211 211 210 217 206 204 200 206 213 211 213 221 230 235 241 248 254 259 259 263 269 274 274 276 281 283 281 277 267 258 250
347 351 353 352 350 347 345 344 337 333 303 267 237 222 216 211 208 208 208 212 197 203 201 202 207 207 206 211 220 229 235 241 248 259 272 279 281 282 286 290 289 286 280 269 263 257 248
347 351 355 352 350 349 347 345 344 344 323 281 227 205 210 204 206 204 204 198 192 199 203 201 205 207 211 214 221 229 237 249 266 276 282 285 287 290 294 306 306 295 279 266 269 257 245
346 350 356 353 351 351 349 349 350 348 334 297 234 186 194 196 199 200 196 193 192 199 202 205 206 209 213 218 226 234 247 263 273 278 285 292 300 309 317 315 310 311 302 279 268 260 243
346 350 357 355 352 351 352 351 352 351 335 322 210 184 181 198 196 192 189 191 195 197 198 203 208 212 215 222 229 239 250 262 273 287 292 299 307 314 318 290 309 311 312 301 281 264 241
345 349 356 356 354 352 354 352 354 349 344 306 183 172 176 187 182 178 189 192 195 195 192 197 198 201 209 218 225 233 249 262 283 282 289 303 323 333 338 358 349 15 16 5 344 276 236
344 347 355 356 354 354 355 353 352 351 1 290 183 172 174 181 180 183 194 194 194 192 191 189 185 194 208 214 220 228 247 270 261 273 288 297 333 332 0 28 31 31 31 43 44 25 181
343 346 353 355 353 356 355 355 350 349 8 285 183 165 166 180 185 185 193 191 193 193 192 190 191 201 210 214 215 230 242 249 252 276 288 303 335 1 18 38 34 38 33 32 27 25 41
343 344 351 354 353 355 355 355 350 345 8 352 210 175 171 175 183 190 189 192 194 193 193 194 196 205 212 210 211 234 232 244 248 270 275 335 351 17 24 38 39 39 41 37 42 46 39
343 343 348 353 354 352 355 354 351 347 344 47 211 194 172 168 169 180 186 188 193 193 194 197 202 211 209 208 218 232 228 233 242 262 265 322 345 39 31 39 48 40 37 43 49 47 55
343 343 346 350 353 349 354 353 350 344 348 20 250 203 189 181 179 177 182 187 192 194 194 200 206 210 209 213 224 232 232 233 236 234 275 314 64 80 35 20 55 52 45 47 51 44 41
343 343 344 347 351 348 351 351 348 341 342 330 255 205 193 186 186 184 183 186 190 194 196 199 207 209 213 219 228 237 233 220 234 238 256 291 55 96 48 28 48 58 55 53 53 53 45
342 341 342 345 350 348 348 349 346 334 316 288 251 231 209 197 188 189 190 188 190 194 196 200 206 213 218 222 226 231 217 216 225 219 233 231 204 95 69 24 15 32 49 52 37 54 54
342 340 341 343 347 348 345 347 343 335 320 293 226 216 208 201 195 191 187 189 194 195 198 200 206 213 218 225 227 214 210 210 218 226 214 226 204 192 303 78 10 6 7 6 9 7 15
341 339 340 341 345 347 344 344 339 331 310 284 228 220 206 199 191 189 187 187 189 195 197 201 209 214 223 220 213 209 204 208 218 223 229 214 212 226 273 301 322 244 345 342 355 4 5
340 339 338 339 343 344 342 341 334 323 306 271 229 209 204 203 194 194 186 185 185 186 192 199 205 210 210 208 210 205 209 214 222 222 226 223 233 228 253 273 294 300 302 314 313 323 347
Height
10553 10541 10532 10522 10513 10506 10500 10496 10494 10493 10492 10492 10494 10495 10497 10500 10505 10510 10516 10521 10526 10532 10541 10550 10560 10572 10581 10589 10593 10601 10614 10620 10625 10629 10636 10643 10648 10652 10655 10658 10664 10669 10664 10665 10664 10666 10668
10546 10532 10521 10511 10503 10495 10488 10482 10479 10478 10477 10476 10477 10479 10481 10484 10489 10493 10499 10504 10510 10517 10525 10535 10544 10555 10565 10570 10582 10586 10597 10602 10608 10618 10623 10630 10635 10639 10643 10645 10651 10655 10655 10656 10655 10653 10657
10537 10522 10510 10499 10492 10484 10478 10471 10468 10464 10463 10461 10462 10464 10464 10467 10472 10476 10482 10488 10495 10502 10509 10518 10528 10539 10547 10559 10565 10569 10579 10589 10598 10605 10609 10615 10621 10626 10630 10634 10638 10641 10643 10644 10643 10643 10649
10527 10515 10501 10489 10479 10471 10464 10459 10454 10450 10449 10446 10445 10448 10449 10453 10456 10461 10466 10473 10480 10486 10495 10505 10514 10523 10530 10544 10548 10556 10566 10574 10583 10589 10595 10602 10607 10613 10618 10621 10624 10625 10628 10628 10628 10633 10638
10518 10504 10492 10480 10470 10460 10453 10447 10442 10439 10435 10432 10430 10432 10433 10436 10440 10445 10451 10458 10465 10472 10483 10492 10499 10508 10518 10528 10534 10543 10549 10559 10568 10575 10583 10589 10594 10600 10606 10605 10608 10608 10616 10617 10618 10619 10622
10507 10493 10480 10467 10457 10448 10441 10437 10431 10425 10421 10418 10416 10416 10418 10421 10424 10430 10436 10444 10452 10461 10470 10477 10486 10496 10505 10512 10519 10528 10536 10545 10554 10563 10570 10576 10584 10589 10589 10585 10592 10597 10601 10603 10604 10603 10605
10500 10484 10470 10456 10443 10431 10421 10414 10410 10407 10401 10398 10398 10400 10401 10405 10409 10415 10423 10433 10443 10450 10454 10464 10475 10484 10488 10497 10507 10515 10524 10531 10540 10548 10556 10565 10571 10571 10570 10573 10577 10581 10583 10588 10587 10585 10588
10493 10475 10462 10447 10435 10424 10413 10398 10386 10379 10375 10370 10374 10379 10383 10388 10393 10400 10412 10422 10427 10438 10443 10454 10461 10466 10471 10480 10492 10502 10512 10518 10527 10536 10545 10551 10556 10555 10557 10560 10561 10563 10566 10567 10567 10568 10571
10479 10461 10446 10432 10416 10401 10385 10373 10359 10349 10346 10345 10343 10355 10363 10370 10379 10390 10400 10407 10415 10422 10434 10442 10447 10452 10457 10469 10480 10488 10497 10506 10517 10526 10531 10538 10541 10541 10545 10545 10543 10541 10542 10543 10546 10545 10553
10465 10447 10430 10414 10396 10378 10359 10347 10336 10326 10321 10321 10322 10328 10341 10351 10366 10376 10387 10398 10404 10414 10424 10431 10437 10441 10450 10459 10469 10477 10487 10497 10507 10515 10521 10525 10524 10526 10525 10526 10518 10521 10520 10517 10519 10522 10533
10451 10433 10413 10395 10376 10357 10340 10326 10317 10307 10302 10301 10302 10307 10317 10333 10348 10364 10377 10384 10391 10403 10415 10423 10430 10434 10442 10452 10463 10470 10481 10491 10500 10504 10509 10510 10512 10513 10513 10502 10497 10499 10499 10496 10494 10496 10503
10439 10419 10398 10377 10357 10338 10323 10307 10299 10290 10284 10283 10286 10289 10300 10317 10331 10351 10364 10369 10378 10392 10410 10418 10423 10429 10437 10448 10456 10466 10475 10485 10490 10496 10499 10500 10503 10497 10489 10482 10481 10476 10474 10471 10468 10471 10483
10428 10407 10386 10361 10340 10321 10307 10293 10284 10275 10269 10267 10271 10279 10290 10302 10320 10337 10348 10356 10372 10391 10403 10410 10416 10422 10432 10442 10452 10461 10469 10476 10481 10486 10490 10489 10483 10479 10471 10465 10459 10456 10449 10446 10447 10449 10462
10417 10395 10375 10347 10327 10310 10295 10282 10271 10263 10258 10257 10259 10267 10278 10290 10307 10321 10336 10350 10369 10388 10396 10402 10409 10418 10427 10436 10445 10455 10464 10468 10472 10476 10476 10475 10473 10461 10454 10445 10440 10429 10418 10418 10407 10410 10418
10408 10388 10361 10338 10322 10302 10286 10274 10262 10255 10249 10246 10250 10259 10269 10280 10295 10310 10331 10346 10367 10377 10388 10397 10405 10414 10424 10432 10441 10450 10455 10460 10463 10466 10467 10464 10456 10445 10433 10426 10412 10400 10389 10380 10375 10383 10389
10400 10382 10356 10336 10318 10299 10280 10268 10257 10251 10246 10242 10244 10250 10262 10274 10286 10304 10323 10347 10361 10371 10382 10392 10401 10410 10419 10429 10436 10442 10447 10453 10457 10457 10454 10447 10441 10427 10420 10404 10385 10374 10366 10359 10355 10358 10364
10394 10379 10352 10332 10313 10297 10279 10266 10255 10249 10244 10242 10244 10249 10258 10269 10281 10298 10323 10344 10355 10363 10375 10388 10397 10406 10416 10423 10430 10436 10441 10448 10448 10445 10441 10434 10425 10415 10399 10384 10370 10362 10352 10345 10342 10342 10345
10387 10373 10349 10331 10313 10293 10279 10265 10255 10248 10245 10243 10245 10249 10256 10265 10280 10299 10322 10336 10347 10358 10370 10381 10391 10402 10411 10418 10425 10431 10439 10440 10438 10437 10432 10426 10422 10412 10401 10385 10371 10356 10345 10336 10331 10332 10334
10379 10366 10345 10330 10313 10294 10280 10266 10258 10252 10248 10247 10245 10249 10256 10268 10283 10301 10316 10330 10342 10356 10369 10378 10387 10398 10406 10412 10420 10428 10431 10431 10433 10429 10426 10420 10417 10407 10394 10378 10364 10352 10342 10334 10329 10327 10329
10375 10359 10342 10328 10311 10298 10284 10270 10262 10255 10253 10252 10253 10253 10261 10269 10281 10293 10306 10323 10340 10355 10365 10376 10385 10393 10400 10408 10417 10423 10423 10425 10424 10423 10421 10418 10413 10405 10396 10375 10356 10350 10340 10332 10329 10328 10327
10369 10353 10341 10325 10310 10297 10284 10273 10265 10258 10256 10257 10257 10256 10259 10268 10277 10289 10301 10318 10336 10351 10362 10373 10382 10389 10397 10405 10413 10417 10419 10421 10420 10420 10419 10417 10412 10404 10391 10376 10365 10356 10348 10342 10335 10331 10329
10368 10350 10339 10326 10310 10298 10286 10277 10268 10263 10259 10260 10260 10260 10262 10268 10276 10287 10301 10318 10333 10346 10358 10368 10378 10385 10391 10402 10408 10412 10415 10417 10418 10418 10417 10416 10411 10404 10395 10384 10373 10367 10360 10354 10350 10345 10341
10370 10348 10334 10326 10314 10296 10287 10275 10269 10265 10262 10264 10265 10265 10266 10270 10275 10283 10297 10311 10326 10340 10353 10364 10373 10378 10389 10397 10402 10406 10411 10414 10417 10417 10416 10416 10410 10406 10399 10393 10383 10378 10372 10369 10363 10359 10356
10370 10349 10332 10323 10312 10295 10289 10280 10272 10268 10266 10265 10266 10265 10267 10270 10274 10284 10295 10308 10322 10335 10348 10359 10367 10375 10384 10392 10398 10402 10407 10410 10415 10415 10416 10415 10410 10406 10403 10397 10391 10386 10383 10380 10377 10373 10368
10369 10350 10333 10321 10311 10298 10288 10280 10274 10270 10267 10266 10267 10269 10271 10274 10278 10284 10292 10303 10317 10330 10342 10353 10361 10370 10378 10387 10393 10397 10403 10408 10410 10414 10415 10413 10411 10408 10406 10401 10395 10393 10392 10390 10387 10387 10384
10368 10349 10336 10322 10313 10300 10290 10282 10276 10273 10272 10271 10269 10269 10273 10276 10280 10286 10294 10302 10313 10326 10338 10348 10356 10366 10374 10382 10389 10394 10400 10404 10406 10412 10412 10412 10410 10409 10409 10406 10401 10398 10399 10399 10397 10397 10397
10367 10348 10335 10324 10312 10303 10288 10284 10277 10274 10272 10271 10270 10272 10275 10278 10280 10284 10291 10300 10311 10321 10334 10345 10355 10361 10369 10378 10384 10390 10395 10400 10404 10407 10410 10410 10411 10410 10409 10409 10407 10405 10404 10403 10403 10403 10402
10365 10348 10334 10322 10312 10302 10291 10282 10277 10273 10271 10271 10270 10272 10275 10276 10280 10284 10290 10298 10308 10320 10332 10344 10349 10358 10365 10373 10378 10386 10391 10396 10399 10403 10406 10409 10410 10410 10410 10410 10410 10408 10409 10409 10409 10408 10408
10360 10345 10332 10322 10312 10300 10290 10285 10278 10272 10269 10269 10269 10271 10275 10277 10281 10286 10290 10297 10306 10316 10327 10336 10347 10355 10361 10369 10375 10383 10386 10391 10396 10399 10402 10406 10408 10409 10410 10410 10409 10409 10409 10410 10410 10410 10410